Regional Weather Roundup
Issued by NWS

Home | Current Version | Previous Version | Text Only | Print | Product List | Glossary Off
Versions: 1 2 3 4 5 6 7 8 9 10 11 12 13 14 15 16 17 18 19 20 21 22 23 24 25 26 27 28 29 30 31 32 33 34 35 36 37 38 39 40 41 42 43 44 45 46 47 48 49 50

000
ASUS43 KMKX 230400
RWRWI

WISCONSIN REGIONAL WEATHER ROUNDUP
NATIONAL WEATHER SERVICE MILWAUKEE/SULLIVAN WI
1100 PM CDT WED MAR 22 2017

NOTE: "FAIR" INDICATES FEW OR NO CLOUDS BELOW 12,000 FEET WITH NO
SIGNIFICANT WEATHER AND/OR OBSTRUCTIONS TO VISIBILITY.

WIZ001-002-006>008-014>016-023>028-230500-
NORTHWEST WISCONSIN

CITY           SKY/WX    TMP DP  RH WIND       PRES   REMARKS
SUPERIOR ARPT  CLOUDY    31  25  78 E3        30.34F
ASHLAND        CLOUDY    22  18  85 CALM      30.38S
HAYWARD        CLOUDY    33  11  39 SE8       30.33F WCI  26
SIREN          CLOUDY    34   9  35 CALM      30.32F
CUMBERLAND     CLOUDY    32  10  40 SE7       30.32F WCI  26
RICE LAKE      MOCLDY    33  10  38 CALM      30.34F
CHETEK         MOCLDY    32  11  41 SE7       30.34F WCI  26
LADYSMITH      CLOUDY    31  15  50 SE6       30.37F WCI  26
EAU CLAIRE     NOT AVBL
MENOMONIE      CLOUDY    34  16  47 SE6       30.34F WCI  29
NEW RICHMOND   CLOUDY    35  12  39 SE7       30.32S WCI  29
OSCEOLA        CLOUDY    36  13  40 SE9       30.35R WCI  29
$$

WIZ003>005-009-010-017-018-230500-
NORTH CENTRAL WISCONSIN

CITY           SKY/WX    TMP DP  RH WIND       PRES   REMARKS
MANITOWISH WTR CLEAR     26   8  47 S3        30.36S
ARBOR VITAE    CLEAR     27  10  48 SE3       30.36S
WOODRUFF       CLEAR     27  10  48 SE3       30.36S
RHINELANDER    CLEAR     27  12  53 S7        30.39S WCI  19
EAGLE RIVER    CLEAR     26   6  44 S5        30.37F WCI  20
LAND O LAKES   CLEAR     27   7  43 S5        30.38F WCI  21
PHILLIPS       CLOUDY    27  11  51 SE5       30.35F WCI  22
TOMAHAWK       CLEAR     26  10  50 SE3       30.39S
MEDFORD        MOCLDY    28  14  57 SE7       30.37R WCI  20
MERRILL        CLEAR     27  12  53 SE8       30.40S WCI  19
$$

WIZ029-030-035-036-043>047-230500-
CENTRAL WISCONSIN

CITY           SKY/WX    TMP DP  RH WIND       PRES   REMARKS
WAUSAU         CLEAR     26  13  57 SE7       30.40R WCI  18
MOSINEE        CLEAR     27  14  59 SE7       30.42R WCI  19
MARSHFIELD     MOCLDY    29  15  56 SE7       30.38S WCI  22
STEVENS POINT  CLEAR     26  15  65 SE6       30.43R WCI  19
WAUPACA        CLEAR     28  21  76 E7        30.46S WCI  21
WAUTOMA        CLEAR     27  21  78 SE8       30.44F WCI  19
WISC RAPIDS    CLEAR     27  15  61 SE7       30.42S WCI  19
CAMP DOUGLAS   NOT AVBL
$$

WIZ011>013-019>022-031-037>040-048>050-230500-
NORTHEAST WISCONSIN

CITY           SKY/WX    TMP DP  RH WIND       PRES   REMARKS
ANTIGO         CLOUDY    25  14  63 SE9       30.41F WCI  15
SHAWANO        CLEAR     27  21  78 CALM      30.48S
OCONTO         CLEAR     23  18  79 SE3       30.50S
STURGEON BAY   CLEAR     23  17  78 SE5       30.50F WCI  17
GREEN BAY      CLEAR     25  21  85 SE6       30.49S WCI  18
MANITOWOC      NOT AVBL
APPLETON       PTCLDY    25  18  74 SE7       30.45S WCI  17
CLINTONVILLE   CLEAR     27  19  74 SE10      30.47S WCI  17
OSHKOSH        CLEAR     25  18  74 SE7       30.47S WCI  17
$$

WIZ032>034-041-042-053>061-230500-
SOUTHWEST WISCONSIN

CITY           SKY/WX    TMP DP  RH WIND       PRES   REMARKS
LA CROSSE      CLOUDY    38  14  37 SE8       30.36F WCI  32
SPARTA         PTCLDY    30  15  53 E5        30.40S WCI  25
VIROQUA        CLOUDY    33  15  47 SE13      30.35F WCI  24
BOSCOBEL       CLOUDY    37  17  44 VRB3      30.39F
PRAIRIE DU CHI CLOUDY    37  15  42 E7        30.37F WCI  31
PLATTEVILLE    CLOUDY    34  22  62 E10       30.38F WCI  26
$$

WIZ056-057-062-063-064-067-068-230500-
SOUTH CENTRAL WISCONSIN

CITY           SKY/WX    TMP DP  RH WIND       PRES   REMARKS
REEDSBURG      CLEAR     29  19  63 E5        30.40F WCI  24
BARABOO/DELLS  CLEAR     30  19  65 SE8       30.41F WCI  22
LONE ROCK      NOT AVBL
MINERAL POINT  CLOUDY    34  21  60 SE12      30.39S WCI  25
MADISON        CLEAR     28  19  69 SE7       30.44S WCI  21
MIDDLETON      CLEAR     31  22  66 SE12      30.44S WCI  22
WATERTOWN      CLEAR     25  19  76 SE8       30.47R WCI  17
MONROE         PTCLDY    28  19  69 SE8       30.42S WCI  20
JANESVILLE     CLEAR     28  19  69 E6        30.45F WCI  22
$$

WIZ051-052-058>065-066-070>072-230500-
SOUTHEAST WISCONSIN

CITY           SKY/WX    TMP DP  RH WIND       PRES   REMARKS
MILWAUKEE      PTCLDY    26  17  68 CALM      30.48F
WAUKESHA       CLEAR     23  18  80 E5        30.48F WCI  17
MILWAUKEE/TIMM CLEAR     27  18  69 CALM      30.50S
RACINE         CLEAR     26  16  65 CALM      30.50S
KENOSHA        CLEAR     24  18  77 CALM      30.48S
FOND DU LAC    CLEAR     26  17  68 SE7       30.47F WCI  18
SHEBOYGAN      CLEAR     22  17  81 CALM      30.49S
WEST BEND      CLEAR     23  19  86 CALM      30.48S
JUNEAU         CLEAR     25  19  79 E5        30.48R WCI  19
$$

LSZ147-162-230500-
LAKE SUPERIOR

STATION/POSITION TIME  TEMP    WIND        PRES    WAVE
                       AIR SEA DIR/SP/G            HT/PER
                 (UTC) (F)     (DEG/KT/KT) (MB)    (FT/S)
DEVILS ISLAND    0300   29     110/ 10/ 13 1029.8F
PORT WING        0340   29     120/  4/  7 1028.1F
SAXON HARBOR     0340   24     200/  2/  3 1028.1F
$$

LMZ867-665-643>646-230500-
LAKE MICHIGAN

STATION/POSITION TIME  TEMP    WIND        PRES    WAVE
                       AIR SEA DIR/SP/G            HT/PER
                 (UTC) (F)     (DEG/KT/KT) (MB)    (FT/S)
CHAMBERS ISLAND  0340   23     150/  3/  6 1032.2F
NORTHPORT PIER   0340   24      CALM  /  3 1032.8S
SISTER BAY       0305   23     170/  5/  8   N/A
KEWAUNEE LAKESHO 0330   28     170/  5/  7 1032.3F
SHEBOYGAN LAKESH 0300   27     120/  4/  4 1033.7F
PORT WASHINGTON  0330   29     110/  3/  8 1033.5S
MILWAUKEE LAKESH 0340   29     100/  5/  7   N/A
KENOSHA   LAKESH 0300   29     140/  6/  8 1032.2
$$

TC  - TEMPERATURE IN CELSIUS
VSB - VISIBILITY IN STATUTE MILES
WCI - WIND CHILL INDEX
HX  - HEAT INDEX





USA.gov is the U.S. government's official web portal to all federal, state and local government web resources and services.